Flag for Czech Republic Weather past 2 weeks in Tábor, Czech Republic

Now
25 °F

Chilly.


Feels Like: N/A
Forecast: 26 / 33 °F
Wind: N/A

Location: Kocelovice

Current Time: Feb 1, 2015 at 6:53:13 AM

Latest Report: Feb 1, 2015 at 6:00 AM


Visibility: 8 mi

Pressure: 29.26 "Hg

Humidity: 89%

Dew point: 22 °F

Location of TáborLocation

Historic Weather in Tábor — Graph

°F

Tábor temperature yesterday

Maximum temperature yesterday: 32 °F (at 2:00 PM)
Minimum temperature yesterday: 25 °F (at 7:00 AM)
Average temperature yesterday: 28 °F

Past Weeks' High & Low Weather Summary

 TemperatureHumidityPressure
High38 °F (Jan 22, 4:00 PM)100% (Jan 18, 12:00 AM)30.36 "Hg (Jan 18, 12:00 AM)
Low21 °F (Feb 1, 3:00 AM)54% (Jan 29, 2:00 PM)28.82 "Hg (Jan 30, 5:00 AM)
Average32 °F87%29.85 "Hg
* Reported Jan 17 5:00 AM — Feb 1 5:00 AM, Tábor, Weather by CustomWeather, © 2014

Note: Actual official high and low records may vary slightly from our data, if they occured in-between our weather recording intervals... More about our weather records

Advertising

Tábor weather history for previous 24 hours

 ConditionsComfort  
Time TempWeatherWind HumidityBarometerVisibility
5:00 AM
Feb 1
24 °FCold.N/A88%29.23 "Hg8 mi
4:00 AM24 °FCold.N/A92%29.23 "Hg7 mi
3:00 AM21 °FCold.1 mph90%29.23 "Hg7 mi
2:00 AM25 °FChilly.N/A88%29.23 "Hg10 mi
1:00 AM26 °FChilly.1 mph88%29.23 "Hg6 mi
12:00 AM26 °FChilly.2 mph85%29.23 "Hg12 mi
11:00 PM
Jan 31
27 °FChilly.3 mph80%29.21 "Hg12 mi
10:00 PM29 °FChilly.5 mph79%29.21 "Hg8 mi
9:00 PM29 °FOvercast.3 mph80%29.21 "Hg9 mi
8:00 PM29 °FOvercast.3 mph79%29.18 "Hg11 mi
7:00 PM31 °FOvercast.3 mph77%29.18 "Hg9 mi
6:00 PM31 °FLight snow. Overcast.5 mph78%29.15 "Hg10 mi
5:00 PM31 °FLight snow. Overcast.6 mph76%29.12 "Hg9 mi
4:00 PM31 °FOvercast.7 mph78%29.12 "Hg16 mi
3:00 PM32 °FOvercast.9 mph76%29.09 "Hg12 mi
2:00 PM32 °FLight snow. Overcast.9 mph74%29.06 "Hg7 mi
1:00 PM30 °FSnow. Overcast.6 mph87%29.06 "Hg1 mi
12:00 PM31 °FLight snow. Overcast.8 mph74%29.03 "Hg5 mi
11:00 AM31 °FLight snow. Overcast.8 mph72%29.03 "Hg5 mi
10:00 AM28 °FOvercast.3 mph77%29.03 "Hg19 mi
9:00 AM27 °FOvercast.5 mph81%29.03 "Hg17 mi
8:00 AM25 °FOvercast.3 mph84%29.03 "Hg12 mi
7:00 AM25 °FPassing clouds.6 mph85%29.03 "Hg12 mi
6:00 AM26 °FChilly.5 mph82%29.00 "Hg12 mi
Weather by CustomWeather, © 2014

See weather overviewHow to use our weather pages